TimeEDT,TemperatureF,Dew PointF,Humidity,Sea Level PressureIn,VisibilityMPH,Wind Direction,Wind SpeedMPH,Gust SpeedMPH,PrecipitationIn,Events,Conditions,WindDirDegrees,DateUTC
12:53 AM,61.0,52.0,72,30.19,10.0,Variable,3.5,-,N/A,,Clear,0,2013-05-26 04:53:00
1:53 AM,60.1,51.1,72,30.17,10.0,Calm,Calm,-,N/A,,Clear,0,2013-05-26 05:53:00
2:53 AM,60.1,51.1,72,30.17,10.0,Calm,Calm,-,N/A,,Clear,0,2013-05-26 06:53:00
3:53 AM,59.0,51.1,75,30.16,10.0,Calm,Calm,-,N/A,,Clear,0,2013-05-26 07:53:00
4:53 AM,57.0,51.1,81,30.17,10.0,Calm,Calm,-,N/A,,Clear,0,2013-05-26 08:53:00
5:53 AM,55.9,50.0,80,30.19,10.0,Variable,4.6,-,N/A,,Clear,0,2013-05-26 09:53:00
6:53 AM,57.9,51.1,78,30.21,10.0,Calm,Calm,-,N/A,,Clear,0,2013-05-26 10:53:00
7:53 AM,64.9,55.9,73,30.22,10.0,Calm,Calm,-,N/A,,Clear,0,2013-05-26 11:53:00
8:53 AM,72.0,57.0,59,30.23,10.0,Calm,Calm,-,N/A,,Clear,0,2013-05-26 12:53:00
9:53 AM,78.1,60.1,54,30.23,10.0,South,5.8,-,N/A,,Clear,190,2013-05-26 13:53:00
10:53 AM,82.0,57.9,44,30.24,10.0,South,5.8,-,N/A,,Partly Cloudy,170,2013-05-26 14:53:00
11:53 AM,84.9,50.0,30,30.24,10.0,Variable,3.5,-,N/A,,Partly Cloudy,0,2013-05-26 15:53:00
12:53 PM,87.1,51.1,29,30.21,10.0,Calm,Calm,-,N/A,,Scattered Clouds,0,2013-05-26 16:53:00
1:53 PM,89.1,48.9,25,30.19,10.0,Variable,5.8,-,N/A,,Scattered Clouds,0,2013-05-26 17:53:00
2:53 PM,89.1,46.9,23,30.18,10.0,Calm,Calm,-,N/A,,Partly Cloudy,0,2013-05-26 18:53:00
3:53 PM,88.0,57.0,35,30.16,10.0,SSE,8.1,16.1,N/A,,Partly Cloudy,160,2013-05-26 19:53:00
4:53 PM,88.0,57.0,35,30.14,10.0,South,10.4,-,N/A,,Clear,180,2013-05-26 20:53:00
5:53 PM,87.1,57.9,37,30.14,10.0,SSE,6.9,-,N/A,,Scattered Clouds,160,2013-05-26 21:53:00
6:53 PM,84.9,57.9,40,30.14,10.0,South,6.9,-,N/A,,Partly Cloudy,170,2013-05-26 22:53:00
7:53 PM,82.9,57.9,42,30.14,10.0,SSE,5.8,-,N/A,,Clear,160,2013-05-26 23:53:00
8:53 PM,79.0,59.0,50,30.14,10.0,South,3.5,-,N/A,,Clear,170,2013-05-27 00:53:00
9:53 PM,75.9,59.0,56,30.15,10.0,Calm,Calm,-,N/A,,Clear,0,2013-05-27 01:53:00
10:53 PM,72.0,59.0,64,30.17,10.0,Calm,Calm,-,N/A,,Clear,0,2013-05-27 02:53:00
11:53 PM,68.0,59.0,73,30.17,10.0,Calm,Calm,-,N/A,,Clear,0,2013-05-27 03:53:00